Location: *
(46.4833°N, 7.6667°E)
Time: 08:08:33
(UTC+00:00)

CZ-4 R/B - Pass Details

Date: 27 February 2020
Orbit: 531 x 599 km, 97.8° (Epoch: 30 March)

Event Time Altitude Azimuth Distance (km) Brightness Sun altitude
Rises 17:39:48 0° 162° (SSE) 2,824 4.8 -5.6°
Reaches altitude 10° 17:41:58 10° 161° (SSE) 1,921 4.0 -6.0°
Maximum altitude 17:46:08 78° 76° (ENE) 605 1.4 -6.7°
Drops below altitude 10° 17:50:17 10° 349° (N) 1,904 4.2 -7.4°
Sets 17:52:25 0° 349° (NNW) 2,797 5.0 -7.8°
